Regional Weather Roundup
Issued by NWS Albany, NY

Current Version | Previous Version | Graphics & Text | Print | Product List | Glossary Off
Versions: 1 2 3 4 5 6 7 8 9 10 11 12 13 14 15 16 17 18 19 20 21 22 23 24 25 26 27

000
ASUS41 KALY 210510
RWRALY

NEW YORK STATE HOURLY WEATHER ROUNDUP
NATIONAL WEATHER SERVICE ALBANY NY
100 AM EDT FRI JUL 21 2017

NOTE: "FAIR" INDICATES FEW OR NO CLOUDS BELOW 12,000 FEET WITH NO
SIGNIFICANT WEATHER AND/OR NO OBSTRUCTIONS TO VISIBILITY.

NYZ032-033-038>043-046>054-057>066-NYZ062>081-082-084-210600-
EAST


CITY           SKY/WX    TMP DP  RH WIND       PRES   REMARKS
ALBANY         PTCLDY    68  61  78 W7        29.89S
GLENS FALLS    CLEAR     60  59  96 CALM      29.87S FOG
POUGHKEEPSIE   MOCLDY    70  68  93 CALM      29.88S
NEWBURGH       MOCLDY    72  72 100 W9        29.92S
MONTGOMERY     PTCLDY    69  68  96 CALM      29.91S FOG
WHITE PLAINS   PTCLDY    75  66  73 W8        29.88
ISLIP          CLEAR     79  67  66 W7        29.86R
NEW YORK CITY  CLOUDY    80  69  69 NW13      29.87S
CENTRAL PARK   PTCLDY    79  67  66 CALM      29.91S
$$

NYZ005>009-017-018-044>046-055-056-210600-
CENTRAL


CITY           SKY/WX    TMP DP  RH WIND       PRES   REMARKS
FULTON         CLEAR     63  61  93 CALM      29.91S FOG
SYRACUSE       PTCLDY    68  66  93 W3        29.90S
ROME           PTCLDY    62  60  93 CALM      29.92R
ELMIRA         FOG       67  67 100 CALM      29.95S VSB 1/4
BINGHAMTON     CLEAR     66  66 100 W3        29.96S
$$

NYZ026>034-041>043-087-210600-
NORTH


CITY           SKY/WX    TMP DP  RH WIND       PRES   REMARKS
WATERTOWN      CLEAR     62  61  96 S3        29.89S
FORT DRUM      NOT AVBL
OGDENSBURG     FAIR      61  57  88 S5        29.86F
MASSENA        CLEAR     63  57  81 SW7       29.86S
SARANAC LAKE   CLEAR     47  47 100 CALM      29.91F
PLATTSBURGH    CLEAR     62  58  86 CALM      29.83F
$$

NYZ001>004-010>016-019>021-085-210600-
WEST


CITY           SKY/WX    TMP DP  RH WIND       PRES   REMARKS
NIAGARA FALLS  CLEAR     71  67  87 SW3       29.92S FOG
BUFFALO        MOCLDY    72  71  97 SW8       29.93S
DUNKIRK        MOCLDY    73  69  87 SW6       29.95S
JAMESTOWN      CLEAR     68  63  83 W8        30.01S
WELLSVILLE     PTCLDY    70  66  87 W7        30.03R
ROCHESTER      PTCLDY    69  65  86 CALM      29.92S
PENN YAN       CLOUDY    71  67  87 SW6       29.95R
$$

             KEY
       WCI = WIND CHILL INDEX
       VSB = VISIBILITY
       HX  = HEAT INDEX
$$




USA.gov is the U.S. government's official web portal to all federal, state and local government web resources and services.